QPF
0.08 0.07 0.06 0.05 0.05 0.05 0.06 0.06 0.06 0.04 0.03 0.02 0.03 0.03 0.03 0.02 0.02 0.03 0.03 0.03 0.03 0.03 0.02 0.02 0.02 0.02 0.01 0.01 0.01 0.00 0.00 0.01 0.01 0.02 0.03 0.04 0.04 0.04
0.10 0.08 0.05 0.04 0.05 0.05 0.06 0.08 0.10 0.08 0.04 0.03 0.04 0.05 0.04 0.03 0.03 0.02 0.02 0.02 0.03 0.03 0.02 0.02 0.03 0.03 0.02 0.02 0.01 0.01 0.01 0.01 0.01 0.02 0.03 0.04 0.04 0.04
0.07 0.07 0.05 0.06 0.06 0.06 0.08 0.08 0.08 0.09 0.06 0.03 0.02 0.03 0.03 0.04 0.05 0.03 0.02 0.02 0.02 0.03 0.03 0.03 0.03 0.03 0.02 0.02 0.02 0.02 0.02 0.02 0.02 0.02 0.03 0.03 0.04 0.05
0.07 0.06 0.05 0.05 0.05 0.06 0.07 0.07 0.08 0.09 0.07 0.05 0.05 0.05 0.04 0.04 0.04 0.03 0.02 0.02 0.03 0.03 0.03 0.03 0.02 0.03 0.03 0.02 0.01 0.01 0.01 0.02 0.02 0.03 0.04 0.04 0.04 0.04
0.08 0.08 0.08 0.10 0.09 0.07 0.06 0.05 0.05 0.05 0.06 0.06 0.06 0.05 0.04 0.04 0.04 0.04 0.04 0.04 0.03 0.03 0.03 0.02 0.02 0.02 0.02 0.01 0.01 0.01 0.02 0.02 0.02 0.02 0.03 0.03 0.03 0.05
0.12 0.13 0.14 0.12 0.09 0.07 0.06 0.04 0.05 0.04 0.05 0.05 0.05 0.05 0.06 0.06 0.06 0.05 0.06 0.07 0.09 0.07 0.06 0.05 0.04 0.03 0.02 0.02 0.02 0.02 0.02 0.02 0.03 0.02 0.02 0.02 0.02 0.03
0.14 0.13 0.10 0.09 0.07 0.06 0.04 0.05 0.06 0.05 0.05 0.05 0.04 0.04 0.06 0.07 0.06 0.05 0.05 0.05 0.07 0.08 0.07 0.06 0.05 0.04 0.03 0.02 0.02 0.02 0.02 0.02 0.03 0.03 0.02 0.02 0.02 0.02
0.07 0.07 0.06 0.05 0.04 0.05 0.05 0.07 0.07 0.05 0.05 0.05 0.04 0.04 0.03 0.04 0.06 0.07 0.06 0.06 0.05 0.04 0.07 0.06 0.05 0.04 0.03 0.03 0.03 0.03 0.02 0.02 0.03 0.02 0.02 0.02 0.02 0.02
0.04 0.04 0.03 0.03 0.04 0.04 0.05 0.05 0.05 0.05 0.05 0.05 0.04 0.03 0.04 0.04 0.05 0.05 0.04 0.05 0.05 0.04 0.05 0.05 0.06 0.04 0.03 0.03 0.04 0.04 0.04 0.03 0.03 0.03 0.03 0.02 0.02 0.02
0.04 0.04 0.04 0.04 0.03 0.03 0.04 0.04 0.05 0.06 0.06 0.06 0.06 0.05 0.05 0.05 0.06 0.05 0.04 0.04 0.03 0.04 0.06 0.06 0.04 0.04 0.04 0.04 0.04 0.04 0.05 0.05 0.05 0.04 0.04 0.03 0.03 0.03
0.04 0.04 0.04 0.03 0.03 0.04 0.05 0.04 0.05 0.05 0.06 0.06 0.05 0.05 0.05 0.06 0.07 0.07 0.06 0.05 0.04 0.03 0.04 0.06 0.06 0.06 0.05 0.05 0.06 0.06 0.06 0.06 0.05 0.05 0.05 0.05 0.04 0.03
0.04 0.04 0.04 0.04 0.05 0.06 0.06 0.05 0.04 0.04 0.05 0.05 0.04 0.04 0.04 0.04 0.05 0.05 0.05 0.05 0.04 0.03 0.03 0.05 0.05 0.06 0.07 0.05 0.06 0.06 0.06 0.06 0.05 0.04 0.04 0.04 0.04 0.03
0.05 0.06 0.07 0.08 0.07 0.07 0.06 0.05 0.05 0.08 0.07 0.07 0.06 0.06 0.06 0.07 0.07 0.08 0.09 0.09 0.08 0.07 0.06 0.07 0.06 0.08 0.09 0.08 0.06 0.06 0.06 0.06 0.05 0.04 0.04 0.03 0.03 0.03
0.06 0.07 0.07 0.09 0.09 0.09 0.08 0.08 0.08 0.07 0.06 0.07 0.07 0.08 0.09 0.11 0.12 0.14 0.14 0.14 0.13 0.11 0.10 0.09 0.08 0.09 0.12 0.12 0.09 0.07 0.06 0.06 0.06 0.06 0.05 0.04 0.03 0.03
0.06 0.07 0.07 0.08 0.07 0.05 0.06 0.07 0.09 0.09 0.09 0.09 0.09 0.10 0.10 0.11 0.11 0.10 0.10 0.09 0.08 0.07 0.05 0.04 0.05 0.05 0.07 0.09 0.09 0.07 0.06 0.06 0.06 0.06 0.05 0.04 0.03 0.03
0.06 0.07 0.07 0.06 0.06 0.05 0.05 0.05 0.07 0.08 0.08 0.07 0.06 0.06 0.06 0.05 0.05 0.05 0.05 0.05 0.04 0.03 0.02 0.02 0.02 0.03 0.04 0.06 0.08 0.08 0.06 0.05 0.04 0.04 0.05 0.04 0.03 0.03
0.06 0.06 0.06 0.06 0.06 0.05 0.05 0.05 0.05 0.06 0.06 0.05 0.04 0.04 0.05 0.05 0.05 0.06 0.07 0.07 0.06 0.03 0.02 0.02 0.02 0.03 0.04 0.05 0.07 0.07 0.06 0.05 0.04 0.04 0.04 0.03 0.03 0.03
0.07 0.08 0.08 0.08 0.08 0.08 0.08 0.09 0.09 0.07 0.05 0.04 0.04 0.04 0.05 0.05 0.05 0.06 0.08 0.08 0.07 0.05 0.03 0.03 0.02 0.03 0.04 0.04 0.05 0.07 0.07 0.07 0.07 0.06 0.05 0.04 0.03 0.02
0.05 0.06 0.08 0.08 0.08 0.09 0.08 0.06 0.06 0.05 0.05 0.05 0.05 0.05 0.04 0.03 0.04 0.05 0.06 0.07 0.07 0.06 0.05 0.04 0.04 0.04 0.04 0.03 0.03 0.06 0.09 0.09 0.09 0.07 0.06 0.05 0.04 0.03
0.04 0.04 0.06 0.07 0.07 0.07 0.07 0.06 0.05 0.05 0.04 0.04 0.04 0.03 0.02 0.02 0.02 0.02 0.04 0.05 0.06 0.06 0.06 0.05 0.05 0.05 0.05 0.06 0.06 0.05 0.07 0.10 0.11 0.10 0.08 0.06 0.05 0.04
0.05 0.04 0.04 0.05 0.06 0.06 0.05 0.06 0.05 0.05 0.04 0.03 0.02 0.02 0.02 0.01 0.01 0.02 0.02 0.04 0.05 0.06 0.06 0.05 0.05 0.06 0.06 0.07 0.07 0.06 0.07 0.08 0.09 0.11 0.12 0.10 0.07 0.05
0.06 0.05 0.05 0.05 0.05 0.04 0.04 0.04 0.03 0.03 0.02 0.02 0.02 0.01 0.02 0.02 0.02 0.02 0.02 0.02 0.03 0.04 0.04 0.05 0.05 0.05 0.05 0.06 0.06 0.05 0.06 0.08 0.10 0.12 0.13 0.12 0.09 0.05
0.05 0.05 0.05 0.05 0.04 0.04 0.03 0.03 0.03 0.02 0.02 0.02 0.02 0.02 0.02 0.02 0.02 0.02 0.02 0.02 0.02 0.03 0.04 0.04 0.05 0.05 0.05 0.06 0.06 0.05 0.06 0.07 0.09 0.12 0.12 0.13 0.11 0.08
MSLP
1013.39 1013.60 1013.84 1014.05 1014.22 1014.28 1014.22 1014.03 1013.72 1013.30 1012.82 1012.29 1011.76 1011.26 1010.79 1010.37 1010.02 1009.72 1009.48 1009.32 1009.24 1009.26 1009.37 1009.58 1009.88 1010.25 1010.67 1011.10 1011.53 1011.91 1012.23 1012.51 1012.73 1012.94 1013.15 1013.39 1013.69 1014.05
1013.07 1013.23 1013.42 1013.60 1013.73 1013.77 1013.72 1013.55 1013.27 1012.90 1012.45 1011.97 1011.47 1010.96 1010.47 1010.01 1009.58 1009.19 1008.86 1008.59 1008.42 1008.34 1008.39 1008.55 1008.82 1009.18 1009.60 1010.05 1010.49 1010.89 1011.24 1011.53 1011.78 1012.00 1012.21 1012.46 1012.76 1013.13
1013.01 1013.12 1013.25 1013.37 1013.45 1013.46 1013.39 1013.23 1012.98 1012.64 1012.25 1011.81 1011.34 1010.86 1010.37 1009.88 1009.39 1008.93 1008.50 1008.12 1007.84 1007.66 1007.60 1007.67 1007.87 1008.17 1008.56 1008.98 1009.42 1009.83 1010.19 1010.51 1010.79 1011.03 1011.28 1011.56 1011.88 1012.27
1013.14 1013.21 1013.28 1013.35 1013.38 1013.36 1013.27 1013.10 1012.87 1012.57 1012.22 1011.83 1011.41 1010.96 1010.48 1009.98 1009.46 1008.93 1008.41 1007.93 1007.53 1007.22 1007.04 1006.99 1007.07 1007.27 1007.57 1007.93 1008.33 1008.72 1009.09 1009.43 1009.74 1010.03 1010.33 1010.66 1011.02 1011.45
1013.40 1013.43 1013.46 1013.48 1013.47 1013.41 1013.30 1013.13 1012.91 1012.65 1012.35 1012.01 1011.64 1011.22 1010.77 1010.27 1009.73 1009.16 1008.58 1008.01 1007.49 1007.05 1006.72 1006.51 1006.44 1006.50 1006.67 1006.93 1007.24 1007.59 1007.94 1008.29 1008.64 1008.99 1009.35 1009.74 1010.17 1010.65
1013.66 1013.67 1013.68 1013.67 1013.63 1013.55 1013.43 1013.26 1013.06 1012.82 1012.56 1012.27 1011.94 1011.58 1011.16 1010.68 1010.14 1009.55 1008.92 1008.28 1007.66 1007.09 1006.61 1006.24 1006.00 1005.89 1005.90 1006.01 1006.21 1006.48 1006.78 1007.13 1007.50 1007.90 1008.33 1008.79 1009.30 1009.84
1013.84 1013.85 1013.84 1013.82 1013.77 1013.67 1013.55 1013.39 1013.20 1012.99 1012.76 1012.51 1012.23 1011.91 1011.54 1011.10 1010.58 1009.99 1009.34 1008.65 1007.95 1007.28 1006.67 1006.14 1005.73 1005.43 1005.26 1005.21 1005.27 1005.43 1005.67 1005.98 1006.36 1006.79 1007.28 1007.82 1008.40 1009.01
1013.88 1013.88 1013.88 1013.85 1013.80 1013.71 1013.59 1013.44 1013.27 1013.08 1012.88 1012.66 1012.42 1012.14 1011.81 1011.40 1010.92 1010.36 1009.71 1009.01 1008.27 1007.52 1006.80 1006.15 1005.58 1005.11 1004.76 1004.55 1004.45 1004.49 1004.64 1004.90 1005.26 1005.71 1006.24 1006.84 1007.48 1008.15
1013.76 1013.77 1013.77 1013.75 1013.70 1013.62 1013.51 1013.37 1013.20 1013.03 1012.84 1012.64 1012.43 1012.19 1011.89 1011.53 1011.10 1010.57 1009.95 1009.26 1008.51 1007.73 1006.94 1006.19 1005.49 1004.88 1004.38 1004.00 1003.77 1003.67 1003.73 1003.92 1004.25 1004.69 1005.24 1005.88 1006.56 1007.29
1013.52 1013.54 1013.54 1013.53 1013.49 1013.42 1013.31 1013.17 1013.01 1012.83 1012.65 1012.46 1012.25 1012.03 1011.76 1011.44 1011.05 1010.57 1010.00 1009.34 1008.61 1007.82 1007.01 1006.19 1005.41 1004.69 1004.06 1003.56 1003.19 1002.98 1002.94 1003.06 1003.34 1003.77 1004.31 1004.96 1005.68 1006.44
1013.26 1013.27 1013.28 1013.27 1013.23 1013.15 1013.03 1012.88 1012.71 1012.52 1012.33 1012.13 1011.92 1011.70 1011.45 1011.16 1010.80 1010.36 1009.84 1009.22 1008.52 1007.75 1006.93 1006.09 1005.26 1004.47 1003.75 1003.15 1002.68 1002.37 1002.24 1002.29 1002.52 1002.91 1003.45 1004.10 1004.84 1005.62
1013.03 1013.04 1013.04 1013.02 1012.97 1012.88 1012.75 1012.58 1012.38 1012.17 1011.95 1011.73 1011.51 1011.28 1011.03 1010.74 1010.40 1009.99 1009.51 1008.93 1008.26 1007.51 1006.70 1005.85 1004.99 1004.16 1003.38 1002.70 1002.16 1001.77 1001.57 1001.56 1001.74 1002.10 1002.62 1003.27 1004.01 1004.81
1012.90 1012.91 1012.89 1012.86 1012.78 1012.66 1012.50 1012.30 1012.07 1011.82 1011.57 1011.32 1011.07 1010.82 1010.56 1010.27 1009.93 1009.53 1009.06 1008.50 1007.85 1007.12 1006.31 1005.46 1004.58 1003.71 1002.89 1002.16 1001.55 1001.11 1000.84 1000.78 1000.92 1001.25 1001.75 1002.40 1003.16 1003.98
1012.88 1012.87 1012.84 1012.77 1012.66 1012.50 1012.30 1012.06 1011.80 1011.52 1011.23 1010.95 1010.68 1010.40 1010.12 1009.81 1009.46 1009.05 1008.57 1008.01 1007.35 1006.61 1005.79 1004.91 1004.01 1003.11 1002.24 1001.46 1000.81 1000.31 999.99 999.88 999.99 1000.29 1000.78 1001.44 1002.20 1003.05
1012.91 1012.89 1012.83 1012.73 1012.57 1012.37 1012.13 1011.85 1011.56 1011.25 1010.95 1010.65 1010.35 1010.06 1009.75 1009.42 1009.05 1008.61 1008.10 1007.51 1006.82 1006.04 1005.18 1004.26 1003.31 1002.36 1001.44 1000.61 999.90 999.34 998.98 998.82 998.89 999.17 999.65 1000.31 1001.09 1001.97
1012.92 1012.88 1012.80 1012.66 1012.46 1012.22 1011.94 1011.63 1011.31 1010.99 1010.68 1010.38 1010.08 1009.78 1009.47 1009.12 1008.72 1008.25 1007.69 1007.05 1006.30 1005.46 1004.54 1003.56 1002.54 1001.52 1000.54 999.63 998.85 998.23 997.81 997.60 997.63 997.88 998.34 998.99 999.78 1000.69
1012.83 1012.77 1012.65 1012.47 1012.23 1011.95 1011.65 1011.33 1011.01 1010.70 1010.40 1010.12 1009.84 1009.56 1009.25 1008.89 1008.47 1007.97 1007.37 1006.66 1005.85 1004.94 1003.94 1002.88 1001.77 1000.67 999.60 998.61 997.75 997.05 996.55 996.28 996.24 996.44 996.87 997.50 998.29 999.21
1012.55 1012.47 1012.31 1012.09 1011.83 1011.53 1011.21 1010.90 1010.60 1010.32 1010.07 1009.83 1009.60 1009.35 1009.06 1008.71 1008.28 1007.76 1007.12 1006.37 1005.50 1004.51 1003.44 1002.29 1001.10 999.91 998.75 997.67 996.71 995.92 995.33 994.97 994.85 994.97 995.34 995.92 996.69 997.59
1012.06 1011.94 1011.75 1011.50 1011.22 1010.92 1010.61 1010.33 1010.07 1009.85 1009.66 1009.49 1009.31 1009.12 1008.87 1008.55 1008.14 1007.61 1006.95 1006.17 1005.25 1004.22 1003.08 1001.86 1000.60 999.33 998.09 996.92 995.87 994.98 994.29 993.82 993.59 993.62 993.89 994.40 995.10 995.97
1011.36 1011.20 1010.99 1010.73 1010.44 1010.15 1009.88 1009.65 1009.46 1009.31 1009.19 1009.09 1008.99 1008.86 1008.67 1008.39 1008.00 1007.49 1006.84 1006.05 1005.11 1004.05 1002.89 1001.64 1000.34 999.01 997.71 996.47 995.34 994.36 993.56 992.98 992.63 992.54 992.69 993.09 993.70 994.48
1010.49 1010.31 1010.08 1009.82 1009.55 1009.30 1009.09 1008.92 1008.80 1008.73 1008.70 1008.68 1008.66 1008.59 1008.45 1008.22 1007.87 1007.38 1006.76 1005.99 1005.07 1004.03 1002.87 1001.63 1000.32 998.99 997.67 996.39 995.20 994.14 993.25 992.56 992.09 991.87 991.88 992.15 992.63 993.31
1009.54 1009.33 1009.10 1008.87 1008.64 1008.45 1008.31 1008.22 1008.19 1008.20 1008.25 1008.30 1008.34 1008.32 1008.23 1008.04 1007.73 1007.28 1006.70 1005.97 1005.10 1004.11 1003.00 1001.81 1000.55 999.25 997.95 996.68 995.47 994.37 993.41 992.63 992.05 991.69 991.57 991.69 992.03 992.58
1008.56 1008.36 1008.15 1007.96 1007.80 1007.69 1007.63 1007.63 1007.68 1007.77 1007.89 1008.00 1008.08 1008.10 1008.04 1007.88 1007.59 1007.19 1006.64 1005.97 1005.17 1004.26 1003.24 1002.14 1000.97 999.75 998.52 997.29 996.11 995.00 994.01 993.16 992.50 992.03 991.78 991.76 991.96 992.37
Thickness
5759 5757 5755 5755 5754 5753 5750 5747 5740 5734 5736 5742 5745 5749 5749 5748 5747 5746 5745 5745 5743 5742 5740 5738 5736 5734 5733 5732 5731 5729 5728 5727 5725 5724 5722 5721 5719 5717
5757 5755 5753 5753 5752 5751 5749 5747 5744 5738 5734 5739 5741 5743 5744 5744 5743 5742 5741 5740 5739 5738 5736 5735 5733 5731 5730 5728 5727 5726 5724 5723 5721 5720 5719 5717 5716 5714
5754 5752 5751 5750 5748 5747 5745 5743 5741 5738 5733 5735 5737 5739 5738 5738 5737 5736 5736 5735 5734 5733 5732 5730 5728 5727 5725 5724 5723 5721 5720 5719 5717 5716 5715 5714 5712 5710
5750 5749 5748 5747 5745 5743 5741 5739 5738 5736 5732 5729 5730 5731 5731 5732 5731 5730 5730 5730 5729 5728 5727 5726 5724 5723 5721 5719 5718 5717 5715 5714 5713 5712 5710 5709 5707 5705
5747 5745 5743 5741 5739 5738 5736 5734 5733 5732 5730 5726 5725 5725 5725 5726 5724 5724 5724 5723 5723 5722 5721 5720 5719 5717 5716 5714 5713 5711 5710 5708 5707 5706 5705 5703 5701 5700
5743 5741 5739 5737 5735 5733 5731 5729 5728 5725 5723 5720 5719 5718 5718 5719 5717 5714 5714 5715 5715 5715 5714 5714 5712 5710 5709 5708 5706 5705 5704 5702 5701 5700 5699 5697 5695 5694
5738 5736 5735 5734 5732 5730 5728 5724 5722 5718 5715 5713 5712 5711 5710 5709 5708 5708 5706 5706 5706 5707 5705 5705 5705 5703 5701 5701 5700 5698 5698 5696 5695 5693 5692 5690 5688 5687
5731 5730 5729 5727 5726 5724 5723 5721 5718 5714 5710 5707 5705 5704 5704 5703 5703 5702 5699 5696 5695 5698 5696 5696 5696 5695 5694 5694 5694 5692 5690 5689 5688 5686 5685 5683 5681 5679
5724 5722 5721 5721 5719 5717 5715 5714 5712 5711 5709 5705 5701 5700 5699 5698 5696 5694 5693 5690 5690 5691 5688 5686 5686 5686 5687 5687 5686 5685 5683 5681 5679 5678 5676 5675 5673 5671
5717 5715 5713 5712 5711 5708 5706 5704 5702 5702 5701 5699 5698 5697 5695 5694 5691 5689 5687 5684 5684 5682 5680 5676 5677 5677 5679 5678 5678 5676 5674 5672 5671 5669 5668 5666 5664 5662
5710 5709 5707 5704 5704 5701 5697 5694 5692 5692 5693 5692 5691 5690 5689 5687 5684 5680 5676 5673 5671 5671 5671 5668 5668 5667 5668 5668 5669 5667 5665 5664 5662 5661 5659 5656 5654 5652
5700 5700 5699 5697 5695 5692 5689 5686 5683 5683 5682 5682 5681 5681 5679 5678 5676 5673 5670 5665 5662 5660 5662 5659 5657 5655 5655 5658 5657 5657 5655 5654 5652 5650 5649 5647 5645 5642
5691 5689 5689 5688 5685 5683 5681 5679 5677 5675 5673 5671 5670 5669 5668 5667 5665 5663 5661 5659 5654 5652 5654 5651 5647 5645 5643 5644 5645 5645 5644 5642 5641 5640 5639 5638 5635 5633
5683 5681 5680 5678 5676 5674 5672 5670 5669 5666 5663 5661 5659 5657 5656 5655 5654 5653 5651 5650 5648 5646 5645 5642 5638 5636 5633 5632 5632 5634 5633 5632 5630 5629 5629 5628 5626 5624
5674 5673 5670 5667 5665 5664 5663 5661 5659 5656 5653 5650 5648 5647 5646 5645 5644 5642 5641 5639 5637 5636 5634 5632 5630 5627 5625 5623 5623 5622 5621 5621 5620 5619 5618 5617 5616 5615
5664 5661 5659 5657 5656 5654 5653 5651 5649 5646 5643 5640 5638 5637 5636 5634 5632 5631 5628 5626 5624 5623 5623 5622 5620 5618 5615 5614 5613 5612 5612 5611 5611 5610 5608 5607 5606 5606
5652 5649 5646 5644 5642 5641 5640 5638 5637 5634 5632 5630 5628 5625 5623 5622 5620 5619 5616 5613 5611 5610 5610 5610 5609 5608 5606 5605 5603 5603 5602 5601 5601 5600 5597 5596 5597 5598
5641 5638 5635 5633 5631 5630 5628 5626 5624 5623 5621 5619 5616 5614 5612 5610 5608 5607 5605 5603 5600 5600 5599 5598 5597 5596 5595 5595 5595 5593 5592 5592 5591 5590 5589 5587 5588 5590
5629 5627 5624 5622 5621 5620 5618 5615 5613 5612 5610 5608 5606 5603 5601 5599 5597 5595 5594 5592 5590 5589 5588 5587 5586 5583 5582 5583 5585 5586 5583 5584 5583 5582 5581 5581 5581 5583
5619 5616 5614 5612 5610 5608 5607 5605 5603 5601 5599 5597 5595 5593 5591 5588 5586 5584 5583 5581 5580 5579 5578 5578 5577 5575 5574 5574 5574 5576 5577 5576 5575 5575 5574 5575 5575 5576
5608 5606 5604 5603 5600 5599 5597 5595 5593 5591 5588 5586 5585 5583 5581 5579 5576 5574 5573 5572 5570 5570 5569 5570 5570 5570 5569 5567 5565 5567 5570 5571 5571 5570 5568 5567 5566 5567
5599 5596 5595 5594 5592 5590 5588 5586 5583 5581 5579 5577 5576 5574 5572 5570 5568 5566 5565 5563 5562 5561 5561 5562 5563 5562 5560 5558 5558 5559 5561 5563 5564 5564 5564 5563 5562 5562
5590 5588 5587 5585 5584 5582 5580 5577 5575 5573 5571 5569 5568 5566 5564 5562 5561 5559 5557 5556 5555 5554 5554 5553 5553 5553 5552 5551 5551 5552 5554 5555 5555 5555 5556 5559 5559 5560